Weather History for KFIT - April, 2013

Change the Weather History Date:

Saturday, April 20, 2013

  Actual Average (KORH) Record (KORH)
Temperature  
Mean Temperature 56 °F 48 °F  
Max Temperature 66 °F 57 °F 91 °F (1941)
Min Temperature 41 °F 39 °F 20 °F (1926)
Degree Days  
Heating Degree Days 9 17  
Month to date heating degree days 418  
Since 1 July heating degree days 6194  
Cooling Degree Days 0 0  
Month to date cooling degree days 0  
Year to date cooling degree days 0  
Growing Degree Days 6 (Base 50)    
Moisture  
Dew Point 38 °F    
Average Humidity 62    
Maximum Humidity 90    
Minimum Humidity 30    
Precipitation  
Precipitation 0.36 in 0.13 in 1.66 in (1950)
Month to date precipitation 2.83  
Year to date precipitation 13.76  
Sea Level Pressure  
Sea Level Pressure 29.85 in    
Wind  
Wind Speed 11 mph (WNW)    
Max Wind Speed 21 mph    
Max Gust Speed 31 mph    
Visibility 9 miles    
Events Rain    
T = Trace of Precipitation, MM = Missing Value Source: NWS Daily Summary

Daily Weather History Graph

Daily Weather History Graph

Search for Another Location

Airport or City:

Trip Planner

Search our weather history database for the weather conditions in past years. The results will help you decide how hot, cold, wet, or windy it might be!

Date:

Astronomy

Apr. 20, 2013 Rise Set
Actual Time 5:57 AM EDT 7:34 PM EDT
Civil Twilight 5:27 AM EDT 8:04 PM EDT
Nautical Twilight 4:51 AM EDT 8:40 PM EDT
Astronomical Twilight 4:13 AM EDT 9:19 PM EDT
Moon 2:09 PM EDT (4/20) 2:52 AM EDT (4/20)
Length of Visible Light 14h 36m
Length of Day
13h 37m
Waxing Gibbous, 71% of the Moon is Illuminated
Apr 20
Waxing Gibbous
Apr 25
Full
May 2
Last Quarter
May 9
New
May 18
First Quarter

Hourly Weather History & Observations

Time (EDT) Temp. Windchill Dew Point Humidity Pressure Visibility Wind Dir Wind Speed Gust Speed Precip Events Conditions
12:13 AM 68.0 °F - 62.6 °F 83% 29.65 in 7.0 mi SSW 9.2 mph 20.7 mph 0.01 in Rain Light Rain
12:52 AM 66.0 °F - 62.1 °F 87% 29.65 in 7.0 mi SSW 10.4 mph 18.4 mph 0.09 in Rain Light Rain
1:52 AM 64.9 °F - 62.1 °F 90% 29.62 in 10.0 mi South 6.9 mph - 0.01 in   Overcast
2:30 AM 57.2 °F - 51.8 °F 82% 29.64 in 8.0 mi WNW 20.7 mph 28.8 mph 0.02 in Rain Light Rain
2:52 AM 55.0 °F - 52.0 °F 89% 29.64 in 7.0 mi WNW 6.9 mph - 0.06 in Rain Light Rain
3:52 AM 54.0 °F - 51.1 °F 90% 29.66 in 10.0 mi NW 8.1 mph - 0.02 in Rain Light Rain
4:16 AM 53.6 °F - 48.2 °F 82% 29.66 in 8.0 mi NW 4.6 mph - 0.01 in Rain Light Rain
4:31 AM 51.8 °F - 48.2 °F 88% 29.66 in 8.0 mi NW 13.8 mph 19.6 mph 0.03 in Rain Light Rain
4:52 AM 50.0 °F - 46.0 °F 86% 29.68 in 7.0 mi NW 11.5 mph - 0.06 in Rain Rain
5:52 AM 48.0 °F - 43.0 °F 83% 29.72 in 10.0 mi NW 11.5 mph 19.6 mph 0.09 in Rain Light Rain
6:52 AM 46.0 °F 41.0 °F 41.0 °F 83% 29.77 in 10.0 mi NW 10.4 mph - 0.02 in Rain Light Rain
7:52 AM 46.0 °F 40.2 °F 39.9 °F 79% 29.81 in 10.0 mi WNW 12.7 mph - 0.01 in   Overcast
8:01 AM 46.4 °F 41.5 °F 39.2 °F 76% 29.80 in 10.0 mi WNW 10.4 mph - N/A   Overcast
8:09 AM 46.4 °F 41.5 °F 39.2 °F 76% 29.81 in 10.0 mi WNW 10.4 mph - N/A   Overcast
8:52 AM 46.9 °F - 41.0 °F 80% 29.81 in 10.0 mi WNW 4.6 mph - N/A   Overcast
9:52 AM 48.0 °F - 37.9 °F 68% 29.82 in 10.0 mi WNW 8.1 mph 18.4 mph N/A   Clear
10:52 AM 52.0 °F - 36.0 °F 54% 29.85 in 10.0 mi West 16.1 mph 23.0 mph N/A   Partly Cloudy
11:52 AM 54.0 °F - 34.0 °F 47% 29.87 in 10.0 mi West 9.2 mph 18.4 mph N/A   Scattered Clouds
12:52 PM 54.0 °F - 34.0 °F 47% 29.88 in 10.0 mi WNW 12.7 mph 21.9 mph N/A   Scattered Clouds
1:52 PM 54.0 °F - 28.9 °F 38% 29.89 in 10.0 mi West 13.8 mph 26.5 mph N/A   Clear
2:52 PM 54.0 °F - 30.0 °F 40% 29.91 in 10.0 mi WNW 10.4 mph 21.9 mph N/A   Mostly Cloudy
3:52 PM 55.9 °F - 28.9 °F 36% 29.91 in 10.0 mi WNW 15.0 mph 23.0 mph N/A   Clear
4:50 PM 57.2 °F - 26.6 °F 31% 29.94 in 10.0 mi West 10.4 mph 23.0 mph N/A   Scattered Clouds
4:52 PM 57.0 °F - 26.1 °F 30% 29.94 in 10.0 mi WNW 16.1 mph 24.2 mph N/A   Scattered Clouds
5:52 PM 55.9 °F - 26.1 °F 32% 29.99 in 10.0 mi West 15.0 mph 21.9 mph N/A   Scattered Clouds
6:52 PM 54.0 °F - 27.0 °F 35% 30.03 in 10.0 mi WNW 18.4 mph 24.2 mph N/A   Clear
7:52 PM 50.0 °F - 25.0 °F 38% 30.07 in 10.0 mi WNW 13.8 mph - N/A   Clear
8:52 PM 48.0 °F - 24.1 °F 39% 30.13 in 10.0 mi NW 9.2 mph 18.4 mph N/A   Clear
9:52 PM 46.0 °F 41.4 °F 25.0 °F 44% 30.18 in 10.0 mi WNW 9.2 mph - N/A   Clear
10:52 PM 44.1 °F 35.7 °F 21.0 °F 40% 30.21 in 10.0 mi WNW 20.7 mph 31.1 mph N/A   Clear
11:52 PM 41.0 °F 33.1 °F 21.0 °F 45% 30.24 in 10.0 mi NW 15.0 mph 25.3 mph N/A   Clear